Location: Alexandria
(38.8050°N, 77.0470°W)
Time: 17:47:25
(UTC-05:00)

Tiangong 1 - Pass Details

Date: 12 November 2017
Orbit: 285 x 308 km, 42.8° (Epoch: 20 November)

Event Time Altitude Azimuth Distance (km) Brightness Sun altitude
Exits shadow 04:49:25 19° 99° (E) 774 3.5 -23.1°
Drops below altitude 10° 04:50:18 10° 102° (ESE) 1,139 4.5 -23.0°
Sets 04:52:16 0° 105° (ESE) 1,962 6.1 -22.6°
